Location: Fort Wayne
(41.1310°N, 85.1290°W)
Time: 23:48:47
(UTC-04:00)

Amateur Radio Satellites - All Passes

Search period start: 16 October 2017 23:18
Search period end: 17 October 2017 23:18
Location: Fort Wayne, 41.1310°N, 85.1290°W

Satellite Date Start Highest point End Downlink Frequencies (MHz)
Time Altitude Azimuth
PRISM 16 Oct 23:21:33 23:24:51 23° 95° (E) 23:28:08 437.425
LO-87 16 Oct 23:32:17 23:35:28 31° 71° (ENE) 23:38:42 145.935 - 145.965
O/OREOS (USA 219) 16 Oct 23:37:49 23:41:33 24° 302° (WNW) 23:45:19 437.305
ESTCUBE 1 16 Oct 23:48:43 23:52:53 39° 71° (ENE) 23:57:03 437.505/2401.250
YUBILEINY 16 Oct 23:55:12 00:01:48 25° 279° (W) 00:08:27 435.215
BEESAT 2 17 Oct 00:00:05 00:04:08 84° 239° (WSW) 00:08:08 435.950
EO-88 17 Oct 00:04:56 00:06:16 12° 269° (W) 00:07:35 145.990 - 145.960
UNISAT 6 17 Oct 00:10:45 00:15:10 43° 288° (WNW) 00:19:27 437.425
EO-79 17 Oct 00:24:47 00:25:47 11° 90° (E) 00:26:46 145.935-145.965
TIGRISAT 17 Oct 00:26:57 00:31:05 32° 291° (WNW) 00:35:08 435.000
POLYITAN 1 17 Oct 00:27:47 00:29:21 12° 90° (E) 00:30:55 437.675
BEESAT 3 17 Oct 00:28:52 00:30:26 12° 251° (WSW) 00:31:59 437.485
AO-85 17 Oct 00:38:55 00:43:22 50° 242° (WSW) 00:48:07 145.980
FO-29 17 Oct 00:43:12 00:46:56 16° 301° (WNW) 00:50:52 435.910
QB50P2 17 Oct 00:46:15 00:49:34 22° 94° (E) 00:52:52 145.880/145.840
AIST 2D 17 Oct 00:51:35 00:55:03 67° 101° (E) 00:58:29 435.315
NANOSAT C BR1 17 Oct 00:53:50 00:57:05 21° 94° (E) 01:00:18 145.865
PRISM 17 Oct 00:56:33 01:00:05 28° 291° (WNW) 01:03:37 437.425
DUCHIFAT 1 17 Oct 01:06:43 01:10:16 25° 95° (E) 01:13:46 145.980
LO-87 17 Oct 01:06:48 01:08:58 15° 267° (W) 01:11:08 145.935 - 145.965
RS-15 17 Oct 01:08:55 01:19:25 36° 105° (ESE) 01:29:57 29.354- 29.394
50 SAT 17 Oct 01:15:45 01:17:09 12° 66° (ENE) 01:18:33 437.505
DX 1 17 Oct 01:17:42 01:20:19 16° 64° (ENE) 01:22:55 434.975-435.025
SPROUT 17 Oct 01:19:00 01:23:16 89° 261° (W) 01:27:35 437.525
ESTCUBE 1 17 Oct 01:26:32 01:29:48 20° 267° (W) 01:33:05 437.505/2401.250
BUGSAT 1 17 Oct 01:32:13 01:33:57 12° 90° (E) 01:35:39 437.445
VELOX 1 17 Oct 01:32:32 01:36:54 89° 58° (ENE) 01:41:19 145.980
UKube-1 17 Oct 01:49:32 01:52:49 22° 66° (ENE) 01:56:06 .
EO-79 17 Oct 01:57:42 02:01:57 64° 285° (WNW) 02:06:09 145.935-145.965
POLYITAN 1 17 Oct 02:01:17 02:05:30 58° 286° (WNW) 02:09:40 437.675
QB50P2 17 Oct 02:21:35 02:25:23 32° 290° (WNW) 02:29:09 145.880/145.840
NANOSAT C BR1 17 Oct 02:29:01 02:32:50 32° 290° (WNW) 02:36:36 145.865
DUCHIFAT 1 17 Oct 02:42:16 02:45:51 27° 291° (WNW) 02:49:24 145.980
50 SAT 17 Oct 02:46:11 02:49:09 33° 262° (W) 02:52:09 437.505
DX 1 17 Oct 02:51:54 02:56:05 48° 260° (W) 03:00:17 434.975-435.025
M-CUBED/EXP-1 PRIME 17 Oct 02:54:26 02:57:34 30° 104° (ESE) 03:00:52 437.505
ITUPSAT 1 17 Oct 02:57:54 03:00:57 17° 62° (ENE) 03:04:00 437.325
BUGSAT 1 17 Oct 03:05:28 03:09:38 56° 287° (WNW) 03:13:44 437.445
MOZHAYETS 4 17 Oct 03:05:58 03:09:24 21° 66° (ENE) 03:12:49
Gurwin Techsat 1B 17 Oct 03:12:04 03:17:14 48° 100° (E) 03:22:20 435.225
Oscar 19 17 Oct 03:12:27 03:17:35 71° 102° (ESE) 03:22:40 437.125/150
BEESAT 17 Oct 03:15:11 03:19:02 25° 66° (ENE) 03:22:55 436.000
RS-15 17 Oct 03:18:44 03:31:02 72° 306° (NW) 03:43:21 29.354- 29.394
UKube-1 17 Oct 03:24:45 03:28:37 33° 262° (W) 03:32:32 .
AO-7 17 Oct 04:20:55 04:28:10 32° 97° (E) 04:35:22 .
M-CUBED/EXP-1 PRIME 17 Oct 04:29:31 04:31:49 17° 297° (WNW) 04:34:13 437.505
ITUPSAT 1 17 Oct 04:33:35 04:38:17 56° 259° (W) 04:43:03 437.325
MOZHAYETS 4 17 Oct 04:41:52 04:46:15 41° 262° (W) 04:50:39
CUBESAT XI-V 17 Oct 04:42:32 04:46:55 43° 72° (ENE) 04:51:18 437.345
BEESAT 17 Oct 04:52:14 04:56:36 35° 262° (W) 05:01:01 436.000
Gurwin Techsat 1B 17 Oct 04:52:46 04:56:49 23° 296° (WNW) 05:00:52 435.225
Oscar 19 17 Oct 04:53:26 04:56:17 15° 299° (WNW) 04:59:09 437.125/150
KKS-1 17 Oct 05:01:32 05:04:53 22° 66° (ENE) 05:08:16 437.445
ITAMSAT 1 17 Oct 05:15:39 05:20:52 64° 102° (ESE) 05:26:03 435.822/435.867
NO-84 17 Oct 05:19:17 05:23:32 60° 134° (SE) 05:27:42 435.350 FM
RS-15 17 Oct 05:35:58 05:46:13 29° 335° (NNW) 05:56:22 29.354- 29.394
STARS 17 Oct 05:45:06 05:48:40 25° 67° (ENE) 05:52:16 437.465
DOVE 4 17 Oct 05:58:57 06:02:54 24° 94° (E) 06:06:59 437.250
AO-7 17 Oct 06:13:11 06:21:14 57° 295° (WNW) 06:29:18 .
CUBESAT XI-V 17 Oct 06:21:15 06:24:28 18° 268° (W) 06:27:41 437.345
KKS-1 17 Oct 06:37:08 06:41:12 36° 262° (W) 06:45:19 437.445
LilacSat-2 17 Oct 06:47:52 06:50:01 14° 92° (E) 06:52:09 437.200
XW-2F 17 Oct 06:51:07 06:53:02 14° 92° (E) 06:54:56 145.980 - 146.000
KAITUO 1B 17 Oct 06:56:25 06:57:52 12° 91° (E) 06:59:17 145.475/437.950
ITAMSAT 1 17 Oct 06:56:26 06:59:47 17° 299° (WNW) 07:03:08 435.822/435.867
NO-84 17 Oct 06:57:34 07:01:12 26° 331° (NNW) 07:04:44 435.350 FM
CUTE-I 17 Oct 06:58:09 07:01:56 19° 92° (E) 07:05:42 437.470
XW-2D 17 Oct 06:59:40 07:02:26 19° 94° (E) 07:05:10 145.860 - 145.880
XW-2B 17 Oct 07:12:38 07:15:50 26° 96° (E) 07:19:00 145.730 - 145.750
NUDT-PHONESAT 17 Oct 07:15:54 07:18:40 20° 94° (E) 07:21:25 437.300
STRAND 1 17 Oct 07:16:13 07:20:15 24° 65° (ENE) 07:24:17 437.568
STARS 17 Oct 07:21:02 07:24:52 30° 263° (W) 07:28:45 437.465
XW-2C 17 Oct 07:35:17 07:38:57 53° 100° (E) 07:42:36 145.795 - 145.815
DOVE 4 17 Oct 07:36:05 07:40:39 40° 288° (WNW) 07:45:23 437.250
SO-50 17 Oct 07:51:43 07:55:03 21° 112° (ESE) 07:58:25 436.795
RS-15 17 Oct 07:55:09 08:04:20 23° 11° (N) 08:13:15 29.354- 29.394
O/OREOS (USA 219) 17 Oct 08:07:34 08:12:10 66° 66° (ENE) 08:16:43 437.305
HO-68 17 Oct 08:07:59 08:14:27 35° 97° (E) 08:20:52 435.675
AO-7 17 Oct 08:08:46 08:12:14 13° 316° (NW) 08:15:44 .
LilacSat-2 17 Oct 08:20:57 08:24:25 36° 288° (WNW) 08:27:52 437.200
XW-2F 17 Oct 08:23:50 08:27:18 37° 288° (WNW) 08:30:44 145.980 - 146.000
KAITUO 1B 17 Oct 08:28:33 08:32:03 42° 287° (WNW) 08:35:31 145.475/437.950
XW-2D 17 Oct 08:33:25 08:36:36 27° 290° (WNW) 08:39:45 145.860 - 145.880
CUTE 1.7 + AOD 2 17 Oct 08:35:38 08:39:46 54° 100° (E) 08:43:51 437.475
CUTE-I 17 Oct 08:37:04 08:42:17 54° 288° (WNW) 08:47:30 437.470
NO-84 17 Oct 08:38:10 08:39:46 12° 351° (N) 08:41:20 435.350 FM
XW-2B 17 Oct 08:47:04 08:49:50 20° 292° (WNW) 08:52:36 145.730 - 145.750
NUDT-PHONESAT 17 Oct 08:49:29 08:52:29 24° 290° (WNW) 08:55:29 437.300
SEEDS 17 Oct 08:50:09 08:54:11 47° 99° (E) 08:58:12 437.485
STRAND 1 17 Oct 08:54:18 08:59:09 43° 262° (W) 09:04:03 437.568
PCSat 17 Oct 08:56:29 09:00:00 18° 105° (ESE) 09:03:32 145.827
CUBEBUG 2 17 Oct 08:57:08 09:01:45 55° 99° (E) 09:06:12 437.445
YUBILEINY 17 Oct 09:06:31 09:10:48 15° 75° (ENE) 09:15:07 435.215
FO-29 17 Oct 09:09:36 09:14:23 39° 68° (ENE) 09:19:26 435.910
AO-73 17 Oct 09:10:18 09:13:29 19° 92° (E) 09:16:35 145.935
XW-2C 17 Oct 09:11:37 09:12:39 11° 296° (WNW) 09:13:41 145.795 - 145.815
AAUSAT CUBESAT 2 17 Oct 09:25:25 09:29:26 51° 99° (E) 09:33:27 437.432
ZACube-1 17 Oct 09:29:23 09:33:27 35° 97° (E) 09:37:25 437.345
SO-50 17 Oct 09:30:57 09:35:13 42° 309° (NW) 09:39:31 436.795
UNISAT 6 17 Oct 09:33:53 09:36:55 18° 64° (ENE) 09:39:58 437.425
UWE-3 17 Oct 09:43:07 09:47:42 84° 282° (WNW) 09:52:07 435.000/436.395/437.385
XW-2A 17 Oct 09:46:58 09:50:14 48° 285° (WNW) 09:53:26 145.665 - 145.685
TIGRISAT 17 Oct 09:49:05 09:52:39 23° 66° (ENE) 09:56:17 435.000
O/OREOS (USA 219) 17 Oct 09:49:15 09:50:56 12° 263° (W) 09:52:37 437.305
HO-68 17 Oct 09:55:29 10:02:17 46° 294° (WNW) 10:09:02 435.675
RS-15 17 Oct 10:09:23 10:20:56 48° 43° (NE) 10:31:50 29.354- 29.394
PRISM 17 Oct 10:11:17 10:13:53 17° 65° (ENE) 10:16:30 437.425
Oscar 11 17 Oct 10:12:33 10:16:50 65° 101° (E) 10:21:06 .
CUTE 1.7 + AOD 2 17 Oct 10:13:03 10:15:07 14° 296° (WNW) 10:17:11 437.475
NO-84 17 Oct 10:16:44 10:18:38 13° 13° (NNE) 10:20:29 435.350 FM
SEEDS 17 Oct 10:27:06 10:29:27 15° 295° (WNW) 10:31:49 437.485
CUBEBUG 2 17 Oct 10:35:00 10:37:52 16° 297° (WNW) 10:40:41 437.445
PCSat 17 Oct 10:37:29 10:42:50 63° 301° (WNW) 10:48:15 145.827
AO-73 17 Oct 10:45:47 10:49:50 36° 289° (WNW) 10:53:45 145.935
FO-29 17 Oct 10:55:36 10:59:43 24° 267° (W) 11:04:01 435.910
YUBILEINY 17 Oct 10:57:25 11:06:05 81° 95° (E) 11:14:50 435.215
Tancredo 1 17 Oct 11:00:41 11:02:28 38° 328° (NNW) 11:04:15 437.200
AAUSAT CUBESAT 2 17 Oct 11:02:24 11:04:26 14° 296° (WNW) 11:06:28 437.432
ZACube-1 17 Oct 11:06:10 11:09:28 21° 294° (WNW) 11:12:43 437.345
UNISAT 6 17 Oct 11:08:42 11:13:10 51° 261° (W) 11:17:46 437.425
TIGRISAT 17 Oct 11:24:48 11:29:05 38° 263° (W) 11:33:27 435.000
AIST 2D 17 Oct 11:25:54 11:28:42 23° 70° (ENE) 11:31:31 435.315
DELFI C3 17 Oct 11:27:08 11:31:05 80° 285° (WNW) 11:35:03 145.870
EO-88 17 Oct 11:30:46 11:34:20 57° 100° (E) 11:37:53 145.990 - 145.960
Max Valier Satellite 17 Oct 11:32:13 11:35:55 87° 101° (ESE) 11:39:35 145.860
nSIGHT-1 17 Oct 11:34:54 11:37:32 24° 135° (SE) 11:40:11 .
QB50P2 17 Oct 11:39:10 11:41:57 17° 65° (ENE) 11:44:45 145.880/145.840
PRISM 17 Oct 11:45:03 11:48:50 39° 262° (W) 11:52:39 437.425
NANOSAT C BR1 17 Oct 11:46:17 11:48:56 16° 65° (ENE) 11:51:37 145.865
Oscar 11 17 Oct 11:50:46 11:52:24 12° 298° (WNW) 11:54:02 .
NO-84 17 Oct 11:53:25 11:56:59 38° 34° (NE) 12:00:15 435.350 FM
ISS 17 Oct 11:58:17 12:01:18 36° 137° (SE) 12:04:20 437.550
DUCHIFAT 1 17 Oct 11:58:39 12:01:41 19° 66° (ENE) 12:04:44 145.980
RS-15 17 Oct 12:22:16 12:33:42 58° 248° (WSW) 12:44:33 29.354- 29.394
PCSat 17 Oct 12:25:05 12:27:21 12° 323° (NW) 12:29:37 145.827
LO-87 17 Oct 12:31:56 12:35:22 38° 98° (E) 12:38:46 145.935 - 145.965
EO-79 17 Oct 12:49:20 12:53:35 90° 252° (WSW) 12:57:53 145.935-145.965
POLYITAN 1 17 Oct 12:53:01 12:57:18 82° 259° (W) 13:01:37 437.675
Oscar 19 17 Oct 12:53:10 12:55:39 14° 60° (ENE) 12:58:07 437.125/150
YUBILEINY 17 Oct 12:57:35 13:03:55 22° 296° (WNW) 13:10:20 435.215
Gurwin Techsat 1B 17 Oct 12:58:15 12:59:15 10° 57° (ENE) 13:00:14 435.225
AIST 2D 17 Oct 12:59:10 13:01:49 20° 266° (W) 13:04:28 435.315
SPROUT 17 Oct 13:05:50 13:08:24 15° 92° (E) 13:10:58 437.525
nSIGHT-1 17 Oct 13:10:40 13:13:41 38° 331° (NNW) 13:16:43 .
QB50P2 17 Oct 13:13:19 13:17:23 43° 261° (W) 13:21:29 145.880/145.840
ESTCUBE 1 17 Oct 13:17:18 13:21:49 87° 109° (ESE) 13:26:18 437.505/2401.250
NANOSAT C BR1 17 Oct 13:20:12 13:24:15 45° 260° (W) 13:28:22 145.865
VELOX 1 17 Oct 13:23:31 13:26:23 17° 93° (E) 13:29:14 145.980
NO-84 17 Oct 13:31:16 13:34:09 23° 233° (SW) 13:36:50 435.350 FM
DUCHIFAT 1 17 Oct 13:33:09 13:37:03 36° 262° (W) 13:41:01 145.980
ISS 17 Oct 13:34:53 13:37:48 30° 334° (NNW) 13:40:45 437.550
AO-7 17 Oct 13:36:01 13:36:47 10° 40° (NE) 13:37:33 .
M-CUBED/EXP-1 PRIME 17 Oct 13:40:23 13:43:36 37° 68° (ENE) 13:46:42 437.505
BEESAT 2 17 Oct 13:52:07 13:54:40 16° 110° (ESE) 13:57:14 435.950
BUGSAT 1 17 Oct 13:54:19 13:58:28 85° 258° (WSW) 14:02:43 437.445
LO-87 17 Oct 14:06:34 14:08:25 14° 294° (WNW) 14:10:15 145.935 - 145.965
50 SAT 17 Oct 14:07:01 14:07:42 10° 92° (E) 14:08:22 437.505
BEESAT 3 17 Oct 14:15:30 14:19:29 78° 303° (WNW) 14:23:32 437.485
Oscar 19 17 Oct 14:29:05 14:34:16 81° 257° (WSW) 14:39:28 437.125/150
Gurwin Techsat 1B 17 Oct 14:32:59 14:38:16 76° 74° (ENE) 14:43:35 435.225
DX 1 17 Oct 14:40:10 14:43:54 27° 96° (E) 14:47:37 434.975-435.025
SPROUT 17 Oct 14:40:24 14:44:31 45° 288° (WNW) 14:48:37 437.525
nSIGHT-1 17 Oct 14:48:49 14:50:39 14° 350° (N) 14:52:28 .
AO-85 17 Oct 14:53:34 14:57:20 51° 118° (ESE) 15:01:10 145.980
ITAMSAT 1 17 Oct 14:57:39 14:59:57 13° 59° (ENE) 15:02:17 435.822/435.867
VELOX 1 17 Oct 14:58:48 15:03:01 44° 289° (WNW) 15:07:14 145.980
UKube-1 17 Oct 15:11:14 15:15:16 37° 99° (E) 15:19:16 .
ISS 17 Oct 15:13:19 15:15:04 14° 354° (N) 15:16:50 437.550
M-CUBED/EXP-1 PRIME 17 Oct 15:16:54 15:18:10 12° 261° (W) 15:19:26 437.505
AO-7 17 Oct 15:19:41 15:27:25 46° 62° (ENE) 15:35:10 .
BEESAT 2 17 Oct 15:28:11 15:32:02 44° 307° (NW) 15:35:56 435.950
50 SAT 17 Oct 15:37:06 15:40:11 37° 287° (WNW) 15:43:16 437.505
Tancredo 1 17 Oct 15:38:56 15:39:52 13° 24° (NNE) 15:40:48 437.200
BEESAT 3 17 Oct 15:56:39 15:57:43 11° 322° (NW) 15:58:47 437.485
DX 1 17 Oct 16:16:19 16:20:00 27° 292° (WNW) 16:23:40 434.975-435.025
Gurwin Techsat 1B 17 Oct 16:16:23 16:18:46 13° 271° (W) 16:21:09 435.225
SO-50 17 Oct 16:21:59 16:25:38 23° 45° (NE) 16:29:18 436.795
nSIGHT-1 17 Oct 16:26:01 16:27:56 15° 11° (N) 16:29:51 .
ITAMSAT 1 17 Oct 16:33:29 16:38:40 85° 256° (WSW) 16:43:55 435.822/435.867
ITUPSAT 1 17 Oct 16:34:08 16:38:34 36° 98° (E) 16:42:58 437.325
AO-85 17 Oct 16:35:30 16:38:02 16° 318° (NW) 16:40:37 145.980
MOZHAYETS 4 17 Oct 16:36:37 16:41:01 45° 99° (E) 16:45:22
CUBESAT XI-V 17 Oct 16:41:53 16:42:36 10° 89° (E) 16:43:19 437.345
UKube-1 17 Oct 16:47:52 16:51:01 20° 294° (WNW) 16:54:09 .
ISS 17 Oct 16:50:17 16:52:32 17° 15° (NNE) 16:54:49 437.550
BEESAT 17 Oct 16:51:45 16:56:29 56° 101° (E) 17:01:09 436.000
DOVE 4 17 Oct 17:05:21 17:08:19 19° 66° (ENE) 17:11:23 437.250
Tancredo 1 17 Oct 17:10:00 17:11:38 29° 221° (SW) 17:13:15 437.200
AO-7 17 Oct 17:12:28 17:20:11 42° 261° (W) 17:27:56 .
XW-2D 17 Oct 17:42:51 17:43:34 10° 64° (ENE) 17:44:18 145.860 - 145.880
PCSat 17 Oct 17:43:03 17:46:43 18° 43° (NE) 17:50:22 145.827
XW-2B 17 Oct 17:54:45 17:56:48 14° 66° (ENE) 17:58:50 145.730 - 145.750
NUDT-PHONESAT 17 Oct 17:57:18 17:57:36 10° 64° (ENE) 17:57:55 437.300
nSIGHT-1 17 Oct 18:01:45 18:04:51 43° 30° (NNE) 18:07:56 .
SO-50 17 Oct 18:01:53 18:06:20 49° 242° (WSW) 18:10:50 436.795
ITUPSAT 1 17 Oct 18:12:19 18:16:11 25° 294° (WNW) 18:20:01 437.325
MOZHAYETS 4 17 Oct 18:14:39 18:17:49 19° 295° (WNW) 18:20:57
CUBESAT XI-V 17 Oct 18:15:53 18:20:29 75° 284° (WNW) 18:25:03 437.345
XW-2C 17 Oct 18:16:30 18:19:40 25° 70° (ENE) 18:22:50 145.795 - 145.815
CUTE-I 17 Oct 18:19:37 18:24:14 32° 67° (ENE) 18:28:54 437.470
ISS 17 Oct 18:26:16 18:29:31 63° 33° (NNE) 18:32:46 437.550
KKS-1 17 Oct 18:27:35 18:31:50 41° 99° (E) 18:36:03 437.445
BEESAT 17 Oct 18:30:47 18:33:46 17° 298° (WNW) 18:36:45 436.000
HO-68 17 Oct 18:37:17 18:43:00 27° 59° (ENE) 18:48:45 435.675
DOVE 4 17 Oct 18:41:59 18:45:46 34° 263° (W) 18:49:41 437.250
LilacSat-2 17 Oct 19:01:50 19:05:41 80° 260° (W) 19:09:32 437.200
XW-2F 17 Oct 19:03:39 19:07:27 88° 258° (WSW) 19:11:15 145.980 - 146.000
KAITUO 1B 17 Oct 19:07:34 19:11:18 80° 77° (ENE) 19:15:03 145.475/437.950
STARS 17 Oct 19:09:35 19:13:53 46° 100° (E) 19:18:09 437.465
XW-2D 17 Oct 19:13:28 19:17:14 58° 260° (W) 19:21:00 145.860 - 145.880
PCSat 17 Oct 19:25:21 19:30:47 82° 243° (WSW) 19:36:11 145.827
XW-2B 17 Oct 19:27:00 19:30:36 41° 262° (W) 19:34:14 145.730 - 145.750
NUDT-PHONESAT 17 Oct 19:27:17 19:30:58 58° 260° (W) 19:34:38 437.300
CUTE 1.7 + AOD 2 17 Oct 19:27:56 19:31:50 37° 72° (ENE) 19:35:43 437.475
nSIGHT-1 17 Oct 19:38:27 19:40:56 21° 227° (SW) 19:43:26 .
SEEDS 17 Oct 19:41:34 19:45:17 32° 71° (ENE) 19:49:00 437.485
XW-2C 17 Oct 19:50:50 19:53:47 21° 265° (W) 19:56:46 145.795 - 145.815
CUBEBUG 2 17 Oct 19:54:28 19:58:51 44° 72° (ENE) 20:03:22 437.445
CUTE-I 17 Oct 19:59:27 20:04:12 33° 263° (W) 20:09:00 437.470
ISS 17 Oct 20:03:47 20:05:39 14° 229° (SW) 20:07:30 437.550
KKS-1 17 Oct 20:04:52 20:08:05 20° 295° (WNW) 20:11:18 437.445
AO-73 17 Oct 20:05:46 20:08:42 17° 65° (ENE) 20:11:39 145.935
AAUSAT CUBESAT 2 17 Oct 20:15:15 20:18:56 32° 71° (ENE) 20:22:36 437.432
XW-2A 17 Oct 20:17:23 20:20:40 45° 74° (ENE) 20:23:57 145.665 - 145.685
HO-68 17 Oct 20:23:07 20:30:12 63° 257° (WSW) 20:37:21 435.675
ZACube-1 17 Oct 20:24:38 20:28:34 29° 69° (ENE) 20:32:32 437.345
UWE-3 17 Oct 20:39:03 20:43:39 76° 76° (ENE) 20:48:21 435.000/436.395/437.385
STARS 17 Oct 20:46:57 20:49:50 17° 296° (WNW) 20:52:43 437.465
STRAND 1 17 Oct 21:04:25 21:09:34 66° 102° (ESE) 21:14:40 437.568
CUTE 1.7 + AOD 2 17 Oct 21:04:49 21:07:46 18° 267° (W) 21:10:44 437.475
Oscar 11 17 Oct 21:06:51 21:11:01 48° 73° (ENE) 21:15:12 .
YUBILEINY 17 Oct 21:07:52 21:16:01 40° 73° (ENE) 21:24:08 435.215
SEEDS 17 Oct 21:17:51 21:21:00 21° 266° (W) 21:24:10 437.485
CUBEBUG 2 17 Oct 21:32:25 21:35:39 19° 268° (W) 21:38:59 437.445
AO-73 17 Oct 21:40:05 21:44:30 50° 261° (W) 21:48:58 145.935
AAUSAT CUBESAT 2 17 Oct 21:51:27 21:54:25 19° 266° (W) 21:57:25 437.432
ZACube-1 17 Oct 22:00:53 22:04:46 27° 265° (W) 22:08:43 437.345
FO-29 17 Oct 22:01:11 22:07:38 43° 98° (E) 22:14:43 435.910
EO-88 17 Oct 22:08:26 22:11:23 24° 70° (ENE) 22:14:22 145.990 - 145.960
BEESAT 2 17 Oct 22:09:19 22:11:18 13° 40° (NE) 22:13:16 435.950
Max Valier Satellite 17 Oct 22:10:37 22:14:02 35° 72° (ENE) 22:17:28 145.860
DELFI C3 17 Oct 22:11:51 22:15:39 53° 74° (ENE) 22:19:28 145.870
O/OREOS (USA 219) 17 Oct 22:19:28 22:24:00 80° 111° (ESE) 22:28:37 437.305
UWE-3 17 Oct 22:19:36 22:20:37 11° 272° (W) 22:21:39 435.000/436.395/437.385
BEESAT 3 17 Oct 22:32:11 22:36:06 55° 54° (NE) 22:39:56 437.485
Oscar 11 17 Oct 22:44:56 22:47:24 15° 269° (W) 22:49:52 .
STRAND 1 17 Oct 22:45:02 22:48:10 17° 299° (WNW) 22:51:19 437.568
UNISAT 6 17 Oct 23:00:32 23:04:46 34° 96° (E) 23:08:54 437.425
LO-87 17 Oct 23:08:34 23:10:51 16° 67° (ENE) 23:13:09 145.935 - 145.965
